Lee's Summit, MO

12:07 PM CDT on July 21, 2017 (GMT -0500)
Lee's Summit Municipal

Weather History for KLXT - February, 2013

Change the Weather History Date:

Thursday, February 14, 2013

  Actual Average (KMKC) Record (KMKC)
Temperature  
Mean Temperature 42 °F -  
Max Temperature 50 °F 44 °F 66 °F (2005)
Min Temperature 35 °F 27 °F 7 °F (2007)
Degree Days  
Heating Degree Days 22    
Moisture  
Dew Point 25 °F    
Average Humidity 53    
Maximum Humidity 70    
Minimum Humidity 39    
Precipitation  
Precipitation 0.00 in - - ()
Sea Level Pressure  
Sea Level Pressure 30.01 in    
Wind  
Wind Speed 9 mph (WNW)    
Max Wind Speed 15 mph    
Max Gust Speed 25 mph    
Visibility 10 miles    
Events      
Averages and records for this station are not official NWS values.
T = Trace of Precipitation, MM = Missing Value Source: NWS Daily Summary

Daily Weather History Graph

Daily Weather History Graph

Search for Another Location

Airport or City:

Trip Planner

Search our weather history database for the weather conditions in past years. The results will help you decide how hot, cold, wet, or windy it might be!

Date:

Astronomy

Feb. 14, 2013 Rise Set
Actual Time 7:09 AM CST 5:54 PM CST
Civil Twilight 6:42 AM CST 6:21 PM CST
Nautical Twilight 6:11 AM CST 6:52 PM CST
Astronomical Twilight 5:40 AM CST 7:23 PM CST
Moon 9:15 AM CST (2/14) 10:54 PM CST (2/14)
Length of Visible Light 11h 39m
Length of Day
10h 44m
Waxing Crescent, 22% of the Moon is Illuminated
Feb 14
Waxing Crescent
Feb 17
First Quarter
Feb 25
Full
Mar 4
Last Quarter
Mar 11
New

Hourly Weather History & Observations

Time (CST) Temp. Windchill Dew Point Humidity Pressure Visibility Wind Dir Wind Speed Gust Speed Precip Events Conditions
12:53 AM 39.9 °F 33.9 °F 27.0 °F 60% 29.85 in 10.0 mi WSW 9.2 mph - N/A   Clear
1:53 AM 37.0 °F 30.4 °F 27.0 °F 67% 29.86 in 10.0 mi WSW 9.2 mph - N/A   Clear
2:53 AM 36.0 °F 29.0 °F 26.1 °F 67% 29.86 in 10.0 mi WSW 9.2 mph - N/A   Clear
3:53 AM 35.1 °F 28.6 °F 26.1 °F 70% 29.86 in 10.0 mi WSW 8.1 mph - N/A   Clear
4:53 AM 36.0 °F 31.1 °F 25.0 °F 64% 29.88 in 10.0 mi WSW 5.8 mph - N/A   Scattered Clouds
5:53 AM 36.0 °F 32.1 °F 25.0 °F 64% 29.91 in 10.0 mi West 4.6 mph - N/A   Scattered Clouds
6:53 AM 37.0 °F 34.5 °F 26.1 °F 65% 29.94 in 10.0 mi WNW 3.5 mph - N/A   Clear
7:53 AM 37.9 °F 35.5 °F 27.0 °F 65% 29.98 in 10.0 mi West 3.5 mph - N/A   Clear
8:53 AM 42.1 °F 38.4 °F 28.9 °F 60% 30.01 in 10.0 mi West 5.8 mph - N/A   Clear
9:53 AM 45.0 °F 39.3 °F 28.9 °F 53% 30.01 in 10.0 mi NNW 11.5 mph - N/A   Clear
10:53 AM 46.9 °F - 28.0 °F 48% 30.02 in 10.0 mi WNW 13.8 mph 20.7 mph N/A   Clear
11:53 AM 48.0 °F - 27.0 °F 44% 30.03 in 10.0 mi NW 11.5 mph - N/A   Clear
12:53 PM 48.9 °F - 28.0 °F 44% 30.03 in 10.0 mi NW 13.8 mph - N/A   Clear
1:53 PM 48.9 °F - 27.0 °F 43% 30.03 in 10.0 mi West 15.0 mph - N/A   Clear
2:53 PM 48.9 °F - 26.1 °F 41% 30.03 in 10.0 mi West 9.2 mph - N/A   Partly Cloudy
3:53 PM 50.0 °F - 27.0 °F 41% 30.04 in 10.0 mi West 9.2 mph - N/A   Clear
4:53 PM 48.9 °F - 27.0 °F 43% 30.06 in 10.0 mi West 9.2 mph - N/A   Clear
5:53 PM 46.9 °F - 23.0 °F 39% 30.08 in 10.0 mi NW 15.0 mph 25.3 mph N/A   Partly Cloudy
6:53 PM 45.0 °F 39.3 °F 21.9 °F 40% 30.11 in 10.0 mi NNW 11.5 mph 20.7 mph N/A   Partly Cloudy
7:53 PM 43.0 °F 38.8 °F 23.0 °F 45% 30.12 in 10.0 mi NW 6.9 mph - N/A   Mostly Cloudy
8:53 PM 39.9 °F 35.8 °F 21.9 °F 49% 30.13 in 10.0 mi WNW 5.8 mph - N/A   Clear
9:53 PM 39.9 °F 34.5 °F 21.9 °F 49% 30.14 in 10.0 mi WNW 8.1 mph - N/A   Clear
10:53 PM 39.0 °F 31.8 °F 21.0 °F 49% 30.15 in 10.0 mi WNW 11.5 mph - N/A   Clear
11:53 PM 37.9 °F 29.6 °F 21.0 °F 51% 30.17 in 10.0 mi NW 13.8 mph - N/A   Clear